Location: Unspecified
(0.0000°N, 0.0000°E)
Time: 02:50:53
(UTC+00:00)

SR - All Passes

Search period start: 28 May 2017 00:00
Search period end: 07 June 2017 00:00
Orbit: 574 x 883 km, 66.7° (Epoch: 27 May)

Date Brightness Start Highest point End Pass type
(mag) Time Alt. Az. Time Alt. Az. Time Alt. Az.
28 May - 07:50:55 10° NNW 07:55:43 61° WSW 08:00:09 10° S daylight
28 May - 18:35:16 10° SSE 18:39:02 20° ESE 18:43:00 10° ENE visible
28 May - 20:16:22 10° SW 20:20:51 28° WNW 20:25:37 10° NNW visible
29 May - 07:01:42 10° N 07:06:22 45° ENE 07:10:40 10° SE daylight
29 May - 19:26:12 10° SSW 19:31:25 69° WNW 19:37:03 10° NNE visible
30 May - 06:13:49 10° NNE 06:16:54 17° ENE 06:19:51 10° ESE daylight
30 May - 07:55:01 10° WNW 07:58:43 23° WSW 08:02:15 10° SSW daylight
30 May - 18:37:04 10° S 18:42:05 47° ESE 18:47:28 10° NE visible
30 May - 20:22:07 10° W 20:24:06 12° WNW 20:26:08 10° NW visible
31 May - 07:04:39 10° NNW 07:09:27 66° WSW 07:13:52 10° SSE daylight
31 May - 17:49:08 10° SSE 17:52:48 19° ESE 17:56:37 10° ENE daylight
31 May - 19:29:58 10° SW 19:34:35 30° WNW 19:39:29 10° N visible
01 Jun - 06:15:31 10° N 06:20:06 42° ENE 06:24:20 10° SE daylight
01 Jun - 18:39:54 10° SSW 18:45:10 74° WNW 18:50:51 10° NNE visible
02 Jun - 05:27:49 10° NNE 05:30:38 15° ENE 05:33:20 10° ESE visible
02 Jun - 07:08:39 10° NW 07:12:27 24° WSW 07:16:04 10° SSW daylight
02 Jun - 17:50:51 10° S 17:55:50 44° ESE 18:01:12 10° NE daylight
02 Jun - 19:35:25 10° W 19:37:50 13° WNW 19:40:19 10° NW visible
03 Jun - 06:18:24 10° NNW 06:23:11 71° WSW 06:27:35 10° SSE daylight
03 Jun - 17:03:02 10° SSE 17:06:33 18° ESE 17:10:14 10° ENE daylight
03 Jun - 18:43:37 10° SW 18:48:20 32° WNW 18:53:21 10° N visible
04 Jun - 05:29:21 10° N 05:33:49 39° ENE 05:37:58 10° SE visible
04 Jun - 17:53:37 10° SSW 17:58:55 79° WNW 18:04:38 10° NNE daylight
05 Jun - 04:41:50 10° NE 04:44:21 14° ENE 04:46:47 10° E visible
05 Jun - 06:22:17 10° NW 06:26:11 26° WSW 06:29:53 10° SSW daylight
05 Jun - 17:04:37 10° S 17:09:36 41° ESE 17:14:54 10° NE daylight
05 Jun - 18:48:49 10° W 18:51:35 14° WNW 18:54:25 10° NW visible
06 Jun - 05:32:08 10° NNW 05:36:55 77° WSW 05:41:19 10° SSE visible
06 Jun - 16:16:56 10° SSE 16:20:18 17° ESE 16:23:48 10° ENE daylight
06 Jun - 17:57:15 10° SW 18:02:05 34° WNW 18:07:12 10° N daylight
